Location: Lynch Observatory
(39.9540°N, 75.1861°W)
Time: 00:09:51
(UTC-04:00)

ITAMSAT 1 - Visible Passes

Search period start: 16 April 2024 00:00
Search period end: 26 April 2024 00:00
Orbit: 783 x 794 km, 98.8° (Epoch: 15 April)

Date Brightness Start Highest point End Pass type
(mag) Time Alt. Az. Time Alt. Az. Time Alt. Az.
16 Apr 7.6 21:20:04 25° SSE 21:23:11 81° ENE 21:28:26 10° NNW visible
16 Apr 10.3 23:01:35 10° WSW 23:03:12 11° W 23:04:49 10° WNW visible
17 Apr 8.1 20:49:46 17° SE 20:53:27 43° ENE 20:58:21 10° N visible
17 Apr 9.6 22:30:28 16° SW 22:33:01 23° W 22:37:05 10° NW visible
18 Apr 8.9 20:19:46 10° ESE 20:23:50 24° ENE 20:27:55 10° NNE visible
18 Apr 8.6 22:00:09 23° SSW 22:02:58 43° W 22:07:57 10° NNW visible
19 Apr 7.7 21:29:51 24° S 21:33:03 83° WSW 21:38:19 10° NNW visible
20 Apr 7.9 20:59:33 18° SE 21:03:16 52° ENE 21:08:21 10° N visible
20 Apr 9.9 22:40:15 13° SW 22:42:59 18° W 22:46:34 10° NW visible
21 Apr 8.7 20:29:15 10° SE 20:33:37 28° ENE 20:38:02 10° N visible
21 Apr 9.0 22:09:57 20° SSW 22:12:54 35° W 22:17:40 10° NNW visible
22 Apr 7.9 21:39:39 23° S 21:42:56 68° WSW 21:48:10 10° NNW visible
23 Apr 7.7 21:09:21 19° SSE 21:13:06 64° ENE 21:18:17 10° N visible
23 Apr 10.1 22:50:04 10° SW 22:52:57 15° W 22:55:51 10° WNW visible
24 Apr 8.5 20:39:03 11° SE 20:43:25 34° ENE 20:48:06 10° N visible
24 Apr 9.3 22:19:44 17° SW 22:22:49 28° W 22:27:19 10° NW visible
25 Apr 9.2 20:10:15 10° ESE 20:13:50 19° ENE 20:17:26 10° NNE visible
25 Apr 8.2 21:49:27 21° S 21:52:49 55° W 21:57:58 10° NNW visible
